This demonstration page uses our WeatherBlox Daily Observations layout. Learn more.

40.92945, -100.16068

Hourly Observations for December 22, 2016

Temp ( °F °C ) Dew Point ( °F °C ) Humidity (%) Winds ( mph kmh ) Pressure ( in mb ) Visibility ( mi km ) Precip ( " mm )
12:15 am 00:15 Clear 22 -5.6 16 -9.1 77 77 WNW 10 17 30.56 1035 10 16.0934 N/A
12:35 am 00:35 Clear 20 -6.4 15 -9.5 79 79 WNW 8 13 30.56 1035 10 16.0934 N/A
12:55 am 00:55 Clear 20 -6.9 14 -9.9 79 79 Calm 30.56 1035 10 16.0934 N/A
1:15 am 01:15 Clear 20 -6.6 15 -9.5 80 80 Calm 30.56 1035 10 16.0934 N/A
1:35 am 01:35 Clear 20 -6.4 15 -9.3 80 80 NNW 5 7 30.56 1035 10 16.0934 N/A
1:55 am 01:55 Clear 19 -7 14 -10 79 79 NW 3 6 30.56 1035 10 16.0934 N/A
2:15 am 02:15 Clear 20 -6.9 14 -10.2 78 78 Calm 30.56 1035 10 16.0934 N/A
2:35 am 02:35 Clear 19 -7.5 13 -10.5 79 79 NW 7 11 30.59 1036 10 16.0934 N/A
2:55 am 02:55 Clear 18 -8 13 -10.6 82 82 WNW 7 11 30.59 1036 10 16.0934 N/A
3:15 am 03:15 Clear 17 -8.5 12 -11 82 82 W 6 9 30.59 1036 10 16.0934 N/A
3:35 am 03:35 Clear 17 -8.1 13 -10.6 82 82 WNW 6 9 30.59 1036 10 16.0934 N/A
3:55 am 03:55 Clear 18 -8 13 -10.5 82 82 WNW 5 7 30.59 1036 10 16.0934 N/A
4:15 am 04:15 Clear 17 -8.2 13 -10.8 82 82 NW 6 9 30.59 1036 10 16.0934 N/A
4:35 am 04:35 Clear 17 -8.1 13 -10.6 82 82 NW 7 11 30.59 1036 10 16.0934 N/A
4:55 am 04:55 Clear 17 -8.5 12 -11 82 82 NNW 5 7 30.59 1036 10 16.0934 N/A
5:15 am 05:15 Clear 16 -9.1 11 -11.5 83 83 W 5 7 30.59 1036 10 16.0934 N/A
5:35 am 05:35 Clear 16 -8.9 12 -11.1 84 84 WSW 3 6 30.59 1036 10 16.0934 N/A
5:55 am 05:55 Clear 16 -8.7 12 -10.9 84 84 W 5 7 30.59 1036 10 16.0934 N/A
6:15 am 06:15 Clear 18 -7.8 14 -10.1 84 84 W 5 7 30.59 1036 10 16.0934 N/A
6:35 am 06:35 Clear 18 -7.7 14 -10.1 83 83 Calm 30.59 1036 10 16.0934 N/A
6:55 am 06:55 Clear 19 -7.4 15 -9.7 84 84 WNW 3 6 30.56 1035 10 16.0934 N/A
7:15 am 07:15 Clear 19 -7 15 -9.4 83 83 W 3 6 30.56 1035 10 16.0934 N/A
7:35 am 07:35 Clear 19 -7 15 -9.4 83 83 Calm 30.56 1035 10 16.0934 N/A
7:55 am 07:55 Clear 19 -7.2 15 -9.7 83 83 W 3 6 30.53 1034 10 16.0934 N/A
8:15 am 08:15 Sunny 19 -7.5 14 -9.8 84 84 SW 3 6 30.59 1036 10 16.0934 N/A
8:35 am 08:35 Sunny 20 -6.7 16 -9.1 83 83 SSW 5 7 30.56 1035 10 16.0934 N/A
8:55 am 08:55 Sunny 21 -6 17 -8.5 83 83 Calm 30.56 1035 10 16.0934 N/A
9:15 am 09:15 Sunny 23 -5 18 -8 80 80 Calm 30.56 1035 10 16.0934 N/A
9:35 am 09:35 Sunny 25 -4.1 19 -7.3 79 79 Calm 30.53 1034 10 16.0934 N/A
9:55 am 09:55 Sunny 26 -3.1 20 -6.9 75 75 Calm 30.53 1034 10 16.0934 N/A
10:15 am 10:15 Sunny 29 -1.9 20 -6.4 72 72 Calm 30.53 1034 10 16.0934 N/A
10:35 am 10:35 Sunny 33 0.6 21 -6 62 62 Calm 30.5 1033 10 16.0934 N/A
10:55 am 10:55 Sunny 37 2.9 20 -6.4 51 51 WSW 5 7 30.48 1032 10 16.0934 N/A
11:15 am 11:15 Sunny 39 4.1 19 -7.5 43 43 SSW 6 9 30.45 1031 10 16.0934 N/A
11:35 am 11:35 Sunny 42 5.6 17 -8.1 37 37 SSW 10 17 30.42 1030 10 16.0934 N/A
11:55 am 11:55 Sunny 43 6.2 17 -8.5 34 34 SSW 13 20 30.42 1030 10 16.0934 N/A
12:15 pm 12:15 Sunny 43 5.9 17 -8.4 35 35 S 13 20 30.39 1029 10 16.0934 N/A
12:35 pm 12:35 Sunny 43 6.2 17 -8.6 34 34 SSW 12 19 30.36 1028 10 16.0934 N/A
12:55 pm 12:55 Sunny 43 6.2 16 -8.7 34 34 SW 15 24 30.36 1028 10 16.0934 N/A
1:15 pm 13:15 Sunny 45 7 17 -8.6 32 32 SSW 13 20 30.3 1026 10 16.0934 N/A
1:35 pm 13:35 Sunny 45 7 17 -8.6 32 32 SSW 9 15 30.3 1026 10 16.0934 N/A
1:55 pm 13:55 Sunny 45 7.1 17 -8.6 32 32 SSW 14 22 30.3 1026 10 16.0934 N/A
2:15 pm 14:15 Sunny 45 7 17 -8.6 32 32 SSW 15 24 30.3 1026 10 16.0934 N/A
2:35 pm 14:35 Sunny 45 7.1 17 -8.5 32 32 SSW 14 22 30.27 1025 10 16.0934 N/A
2:55 pm 14:55 Sunny 46 7.5 16 -8.9 30 30 SSW 15 24 30.27 1025 10 16.0934 N/A
3:15 pm 15:15 Sunny 45 7.3 16 -9 31 31 SSW 14 22 30.27 1025 10 16.0934 N/A
3:35 pm 15:35 Sunny 45 7.2 17 -8.6 32 32 SSW 12 19 30.27 1025 10 16.0934 N/A
3:55 pm 15:55 Sunny 45 7.1 16 -8.9 31 31 SSW 15 24 30.27 1025 10 16.0934 N/A
4:15 pm 16:15 Sunny 45 7 16 -9 31 31 SSW 12 19 30.27 1025 10 16.0934 N/A
4:35 pm 16:35 Sunny 44 6.5 16 -8.9 33 33 S 10 17 30.24 1024 10 16.0934 N/A
4:55 pm 16:55 Sunny 43 6.1 16 -9 33 33 S 10 17 30.24 1024 10 16.0934 N/A
5:15 pm 17:15 Sunny 42 5.5 16 -9 35 35 S 12 19 30.24 1024 10 16.0934 N/A
5:35 pm 17:35 Clear 42 5.3 16 -8.7 36 36 S 9 15 30.27 1025 10 16.0934 N/A
5:55 pm 17:55 Partly Cloudy 41 5 17 -8.5 37 37 S 9 15 30.27 1025 10 16.0934 N/A
6:15 pm 18:15 Mostly Cloudy 41 4.8 17 -8.1 39 39 S 9 15 30.27 1025 10 16.0934 N/A
6:35 pm 18:35 Cloudy 41 4.9 18 -7.8 40 40 SSW 12 19 30.27 1025 10 16.0934 N/A
6:55 pm 18:55 Cloudy 40 4.6 28 -2.5 60 60 SSW 15 24 30.27 1025 10 16.0934 N/A
7:15 pm 19:15 Cloudy 39 3.8 30 -0.9 72 72 S 16 26 30.24 1024 10 16.0934 N/A
7:35 pm 19:35 Cloudy with Light Rain 38 3.1 31 -0.5 77 77 SSW 9 15 30.24 1024 10 16.0934 N/A
7:55 pm 19:55 Cloudy 37 2.7 31 -0.6 79 79 SSW 12 19 30.24 1024 10 16.0934 N/A
8:15 pm 20:15 Cloudy 37 2.5 31 -0.8 79 79 S 12 19 30.21 1023 10 16.0934 N/A
8:35 pm 20:35 Cloudy 37 2.5 30 -0.9 79 79 S 9 15 30.21 1023 10 16.0934 N/A
8:55 pm 20:55 Cloudy with Light Snow 36 2.1 30 -1 80 80 SSW 10 17 30.21 1023 10 16.0934 N/A
9:15 pm 21:15 Cloudy 36 2 30 -1 81 81 SSW 13 20 30.21 1023 10 16.0934 N/A
9:35 pm 21:35 Cloudy 35 1.8 30 -1.1 81 81 S 8 13 30.24 1024 10 16.0934 N/A
9:55 pm 21:55 Cloudy with Light Snow 35 1.5 30 -1 84 84 S 12 19 30.21 1023 7 11.26538 N/A
10:15 pm 22:15 Cloudy 34 1 31 -0.8 88 88 S 13 20 30.21 1023 10 16.0934 N/A
10:35 pm 22:35 Cloudy 34 0.9 31 -0.8 89 89 SSE 10 17 30.18 1022 10 16.0934 N/A
10:55 pm 22:55 Cloudy 33 0.8 30 -0.9 89 89 SSE 12 19 30.18 1022 10 16.0934 N/A
11:15 pm 23:15 Cloudy 33 0.8 30 -1.1 87 87 SSE 10 17 30.15 1021 10 16.0934 N/A
11:35 pm 23:35 Cloudy 34 1 30 -1.2 85 85 S 10 17 30.18 1022 10 16.0934 N/A
11:55 pm 23:55 Cloudy 34 1.1 30 -1.2 85 85 S 14 22 30.18 1022 10 16.0934 N/A

Powered by AerisWeather